Regional Weather Roundup
Issued by NWS

Home | Current Version | Previous Version | Text Only | Print | Product List | Glossary Off
Versions: 1 2 3 4 5 6 7 8 9 10 11 12 13 14 15 16 17 18 19 20 21 22 23 24 25 26 27 28 29 30 31 32 33 34 35 36 37 38 39 40 41 42 43 44 45 46 47 48 49 50

000
ASUS45 KBOU 290007
RWRCO

WEATHER ROUNDUP FOR COLORADO
NATIONAL WEATHER SERVICE DENVER/BOULDER CO
600 PM MDT THU JUL 28 2016

NOTE: "FAIR" INDICATES FEW OR NO CLOUDS BELOW 12000 FEET WITH NO
SIGNIFICANT WEATHER AND/OR OBSTRUCTIONS TO VISIBILITY.

COZ001>005-013-030-031-290100-
...NORTHWEST COLORADO...

CITY           SKY/WX    TMP DP  RH WIND       PRES   REMARKS
CRAIG          FAIR      92  27   9 W15G21    30.14F
HAYDEN         FAIR      84  30  14 NW7       30.18F
MEEKER         FAIR      92  28  10 NW12      30.15F
MOUNT WERNER   NOT AVBL
STEAMBOAT SPGS FAIR      84  33  16 W12G21    30.21S
WALDEN         FAIR      77  34  20 NW7       30.34R
$$

COZ006>008-011-290100-
...WEST CENTRAL VALLEYS...

CITY           SKY/WX    TMP DP  RH WIND       PRES   REMARKS
GRAND JUNCTION FAIR      98  27   8 N21G39    30.00S
MONTROSE       FAIR      96  28   9 N8        30.10F
EAGLE          MOSUNNY   91  28  10 NW12G22   30.17F
RIFLE          FAIR      95  23   7 NW17G24   30.05F
DELTA          NOT AVBL
NUCLA          NOT AVBL
$$

COZ017>023-064>068-290100-
...SOUTHWEST COLORADO...

CITY           SKY/WX    TMP DP  RH WIND       PRES   REMARKS
DURANGO        FAIR      91  32  12 VRB6G16   30.19F
CORTEZ         FAIR      93  36  13 NE18G28   30.13R
PAGOSA SPRINGS FAIR      85  19   9 NW6G16    30.31R
TELLURIDE      FAIR      79  25  13 W8        30.46S
WOLF CREEK PAS FAIR      63  34  34 SW15G22   30.71S
$$

COZ009-010-012-014-032>034-037-058>063-290100-
...CENTRAL COLORADO...

CITY           SKY/WX    TMP DP  RH WIND       PRES   REMARKS
ASPEN          FAIR      84  27  12 CALM      30.30R
BUENA VISTA    FAIR      86  21   9 NW18G28   30.28S
COPPER MTN     FAIR      64  14  14 W16G30    30.69S
BERTHOUD PASS  PTSUNNY   55  41  58 NW20G26   30.71R
COTTONWOOD PAS FAIR      81   1   4 SW12      30.48S
GUNNISON       FAIR      84  27  12 W9        30.31S
KREMMLING      FAIR      82  14   7 NW16G29   30.27R
LEADVILLE      FAIR      75  18  11 NW17G25   30.47F
MONARCH PASS   CLOUDY    68  23  18 MISG      30.79S
SALIDA         FAIR      88  30  12 SW5       30.31S
SUNLIGHT       NOT AVBL
WILKERSON PASS PTSUNNY   63  39  42 S5        30.65S
$$

COZ069>075-290100-
...SAN LUIS VALLEY/SANGRE DE CRISTO MOUNTAINS...

CITY           SKY/WX    TMP DP  RH WIND       PRES   REMARKS
ALAMOSA        FAIR      85  36  17 SW17G28   30.24F
LA VETA PASS   PTSUNNY   68  32  26 NE13      30.52R
SAGUACHE       FAIR      88  27  11 NW15G21   30.28S
$$

COZ035-036-038>040-290100-
...NORTHERN COLORADO FRONT RANGE...

CITY           SKY/WX    TMP DP  RH WIND       PRES   REMARKS
DENVER INTL AP FAIR      81  57  43 E17G23    30.17S
DMNS CITY PARK   N/A     80  55  42 E10G22    30.15S
AURORA         MOSUNNY   83  56  40 E9        30.18F
FRONT RANGE AP PTSUNNY   82  57  42 NE16G28   30.18F
ERIE MUNI ARPT FAIR      82  54  37 E9G16     30.16S
BOULDER MUN AP FAIR      81  54  39 NE6       30.16F
CENTENNIAL     FAIR      82  53  36 E12       30.18F
BROOMFIELD     PTSUNNY   82  55  39 N7        30.19S
LONGMONT       NOT AVBL
$$

COZ041-046-047-076>085-087-088-290100-
...PIKES PEAK/PALMER DIVIDE AND SOUTHERN FOOTHILLS...

CITY           SKY/WX    TMP DP  RH WIND       PRES   REMARKS
COLO. SPRINGS  PTSUNNY   85  50  29 NE12      30.20R THUNDER
A. F. ACADEMY  MOSUNNY   82  52  35 N12       30.22R
SCHRIEVER AFB  NOT AVBL
ELLICOTT       NOT AVBL
FALCON         FAIR      82  48  30 N13G20    30.27R
FORT CARSON    NOT AVBL
LIMON          FAIR      83  57  41 E17G23    30.15R
MONUMENT HILL  FAIR      77  52  41 NE12      30.28F
TRINIDAD       NOT AVBL
$$

COZ042>045-048>051-090-091-290100-
...NORTHEAST COLORADO...

CITY           SKY/WX    TMP DP  RH WIND       PRES   REMARKS
GREELEY ARPT   FAIR      75  59  57 NE6       30.18S
AKRON          FAIR      76  59  55 NE9       30.17R
BURLINGTON     FAIR      83  58  42 E14       30.10R
WRAY           NOT AVBL
STERLING       NOT AVBL
HOLYOKE        NOT AVBL
FORT MORGAN    NOT AVBL
$$

COZ086-089-092>099-290100-
...SOUTHEAST COLORADO...

CITY           SKY/WX    TMP DP  RH WIND       PRES   REMARKS
PUEBLO         FAIR      97  45  16 E16       30.01R
LA JUNTA       FAIR      93  56  28 E17G25    29.99R
LAMAR          FAIR      92  57  30 S16       29.96R
SPRINGFIELD      N/A     79  57  46 S23G31    30.04F
$$



USA.gov is the U.S. government's official web portal to all federal, state and local government web resources and services.